Home > Time Zones > World Clock > Weather > Spain > Ceuta > Past weeks

Flag for Spain Weather past 2 weeks in Ceuta, Ceuta, Spain

Now
77 °F

Passing clouds.


Feels Like: 79 °F
Forecast: 70 / 80 °F
Wind: 16 mph from West

Location: Gibraltar Airport

Current Time: Jul 24, 2014 at 1:10:17 PM

Latest Report: Jul 24, 2014 at 11:50 AM


Visibility: N/A

Pressure: 29.86 "Hg

Humidity: 57%

Dew point: 61 °F

Location of CeutaLocation

Historic Weather in Ceuta — Graph

°F

Ceuta temperature yesterday

Maximum temperature yesterday: 84 °F (at 1:50 PM)
Minimum temperature yesterday: 64 °F (at 6:50 AM)
Average temperature yesterday: 76 °F

Past Weeks' High & Low Weather Summary

 TemperatureHumidityPressure
High86 °F (Jul 12, 4:50 PM)100% (Jul 10, 11:50 PM)30.09 "Hg (Jul 10, 11:50 PM)
Low63 °F (Jul 14, 6:50 AM)35% (Jul 12, 4:50 PM)29.83 "Hg (Jul 23, 6:50 PM)
Average73 °F76%30.00 "Hg
* Reported Jul 9 11:50 AM — Jul 24 11:50 AM, Ceuta, Weather by CustomWeather, © 2014

Note: Actual official high and low records may vary slightly from our data, if they occured in-between our weather recording intervals... More about our weather records

Advertising

Ceuta weather history for previous 24 hours

 ConditionsComfort  
Time TempWeatherWind HumidityBarometerVisibility
11:50 AM
Jul 24
77 °FPassing clouds.16 mph57%29.86 "HgN/A
10:50 AM75 °FPassing clouds.14 mph61%29.86 "HgN/A
9:50 AM73 °FPassing clouds.12 mph69%29.86 "HgN/A
8:50 AM72 °FPassing clouds.12 mph73%29.86 "HgN/A
7:50 AM70 °FPassing clouds.12 mph78%29.86 "HgN/A
6:50 AM72 °FPassing clouds.7 mph69%29.83 "HgN/A
5:50 AM72 °FClear.17 mph73%29.83 "HgN/A
4:50 AM72 °FClear.21 mph73%29.83 "HgN/A
3:50 AM73 °FClear.17 mph69%29.86 "HgN/A
2:50 AM72 °FClear.14 mph69%29.86 "HgN/A
1:50 AM75 °FClear.15 mph54%29.86 "HgN/A
12:50 AM75 °FClear.18 mph54%29.86 "HgN/A
11:50 PM
Jul 23
77 °FClear.13 mph51%29.89 "HgN/A
10:50 PM77 °FClear.10 mph57%29.86 "Hg10 mi
9:50 PM81 °FSunny.9 mph48%29.86 "Hg10 mi
8:50 PM84 °FSunny.9 mph43%29.83 "Hg10 mi
7:50 PM82 °FSunny.14 mph48%29.83 "Hg10 mi
6:50 PM82 °FSunny.16 mph45%29.83 "Hg10 mi
5:50 PM82 °FSunny.18 mph48%29.86 "Hg10 mi
4:50 PM82 °FSunny.18 mph48%29.86 "Hg10 mi
3:50 PM82 °FSunny.14 mph58%29.86 "Hg10 mi
2:50 PM82 °FSunny.12 mph51%29.89 "Hg10 mi
1:50 PM84 °FSunny.7 mph45%29.89 "Hg10 mi
Weather by CustomWeather, © 2014

See weather overviewHow to use our weather pages